| time (UTC) | temp F | wind direction | speed knots | gust knots | rain 1hr in | rain 24hr in | rain mn in | humidity % | barometer mb |
| 20260901194424 | 78 | 0 | 0.9 | 1.7 | 0.00 | 0.63 | 0.63 | 59 | 550.0 |
| 20260901193425 | 78 | 0 | 1.7 | 5.2 | 0.00 | 0.63 | 0.63 | 58 | 824.6 |
| 20260901192422 | 78 | 100 | 1.7 | 3.5 | 0.00 | 0.63 | 0.63 | 58 | 465.6 |
| 20260901191421 | 79 | 117 | 1.7 | 3.5 | 0.00 | 0.63 | 0.63 | 58 | 480.6 |
| 20260901190420 | 79 | 136 | 0.9 | 4.3 | 0.00 | 0.63 | 0.63 | 57 | 1016.4 |
| 20260901185416 | 80 | 137 | 0.0 | 3.5 | 0.00 | 0.63 | 0.63 | 56 | 1264.5 |
| 20260901184416 | 80 | 137 | 0.0 | 2.6 | 0.00 | 0.63 | 0.63 | 56 | 489.5 |
| 20260901183857 | 80 | 137 | 0.0 | 0.0 | 0.00 | 0.63 | 0.63 | 55 | 609.1 |
| 20260901182412 | 81 | 137 | 0.0 | 0.0 | 0.00 | 0.63 | 0.63 | 54 | 581.4 |
| 20260901181411 | 81 | 137 | 0.0 | 2.6 | 0.00 | 0.63 | 0.63 | 52 | 439.7 |
| 20260901180412 | 82 | 137 | 0.0 | 0.0 | 0.00 | 0.63 | 0.63 | 52 | 718.8 |
| 20260901175407 | 83 | 137 | 0.0 | 0.0 | 0.00 | 0.63 | 0.63 | 51 | 532.6 |
| 20260901174404 | 83 | 137 | 0.0 | 0.0 | 0.00 | 0.63 | 0.63 | 50 | 432.7 |
| 20260901173406 | 84 | 137 | 0.0 | 0.0 | 0.00 | 0.63 | 0.63 | 48 | 518.0 |
| 20260901172404 | 84 | 137 | 0.0 | 0.0 | 0.00 | 0.63 | 0.63 | 48 | 1010.1 |
| 20260901171358 | 85 | 137 | 0.0 | 0.0 | 0.00 | 0.63 | 0.63 | 48 | 1187.1 |
| 20260901170359 | 85 | 137 | 0.0 | 0.0 | 0.00 | 0.63 | 0.63 | 46 | 736.1 |
| 20260901165358 | 85 | 137 | 0.0 | 0.0 | 0.00 | 0.63 | 0.63 | 47 | 800.8 |
| 20260901164358 | 86 | 137 | 0.0 | 0.0 | 0.00 | 0.63 | 0.63 | 46 | 937.0 |
| 20260901163359 | 87 | 137 | 0.0 | 0.0 | 0.00 | 0.63 | 0.63 | 45 | 776.5 |
| 20260901162353 | 87 | 137 | 0.0 | 0.0 | 0.00 | 0.63 | 0.63 | 44 | 785.5 |
| 20260901161355 | 86 | 137 | 0.0 | 0.0 | 0.00 | 0.63 | 0.63 | 44 | 1305.6 |
| 20260901160354 | 87 | 131 | 0.0 | 0.0 | 0.00 | 0.63 | 0.63 | 44 | 421.5 |
| 20260901155348 | 87 | 131 | 0.0 | 0.0 | 0.00 | 0.63 | 0.63 | 41 | 428.6 |
| 20260901154349 | 88 | 131 | 0.0 | 0.0 | 0.00 | 0.63 | 0.63 | 41 | 820.7 |
| 20260901153349 | 88 | 131 | 0.0 | 0.0 | 0.00 | 0.63 | 0.63 | 41 | 1128.7 |
| 20260901152346 | 87 | 131 | 0.0 | 0.0 | 0.00 | 0.63 | 0.63 | 41 | 634.2 |
| 20260901151347 | 88 | 131 | 0.0 | 0.0 | 0.00 | 0.63 | 0.63 | 40 | 492.6 |
| 20260901150347 | 88 | 131 | 0.0 | 0.0 | 0.00 | 0.63 | 0.63 | 40 | 672.1 |
| 20260901145348 | 87 | 131 | 0.0 | 0.0 | 0.00 | 0.63 | 0.63 | 41 | 628.1 |
| 20260901144339 | 87 | 121 | 0.0 | 0.0 | 0.00 | 0.63 | 0.63 | 41 | 1159.4 |
| 20260901143825 | 87 | 142 | 0.0 | 0.0 | 0.00 | 0.63 | 0.63 | 41 | 490.4 |
| 20260901142340 | 87 | 142 | 0.0 | 0.0 | 0.00 | 0.63 | 0.63 | 40 | 434.5 |
| 20260901141817 | 87 | 111 | 0.0 | 0.0 | 0.00 | 0.63 | 0.63 | 41 | 889.9 |
| 20260901140334 | 87 | 139 | 0.0 | 0.0 | 0.00 | 0.63 | 0.63 | 40 | 1187.1 |
| 20260901135333 | 86 | 110 | 0.0 | 0.0 | 0.00 | 0.63 | 0.63 | 41 | 584.4 |
| 20260901134331 | 86 | 98 | 0.0 | 0.0 | 0.00 | 0.63 | 0.63 | 41 | 933.7 |
| 20260901133809 | 86 | 109 | 0.0 | 0.0 | 0.00 | 0.63 | 0.63 | 43 | 405.8 |
| 20260901132330 | 86 | 0 | 0.0 | 0.0 | 0.00 | 0.63 | 0.63 | 43 | 499.2 |
| 20260901131817 | 85 | 0 | 0.0 | 0.0 | 0.00 | 0.63 | 0.63 | 44 | 898.0 |
| 20260901130325 | 86 | 0 | 0.0 | 0.0 | 0.00 | 0.63 | 0.63 | 42 | 621.8 |
| 20260901125327 | 87 | 64 | 0.0 | 0.0 | 0.00 | 0.63 | 0.63 | 41 | 730.7 |
| 20260901124326 | 87 | 13 | 0.0 | 0.0 | 0.00 | 0.63 | 0.63 | 43 | 806.0 |
| 20260901123327 | 86 | 114 | 0.0 | 0.0 | 0.00 | 0.63 | 0.63 | 43 | 692.1 |
| 20260901122320 | 86 | 0 | 0.0 | 0.0 | 0.00 | 0.63 | 0.63 | 43 | 837.9 |
| 20260901121318 | 86 | 0 | 0.0 | 0.0 | 0.00 | 0.63 | 0.63 | 43 | 1193.5 |
| 20260901120318 | 85 | 105 | 0.0 | 0.0 | 0.00 | 0.63 | 0.63 | 42 | 504.4 |
| 20260901115313 | 85 | 49 | 0.0 | 0.0 | 0.00 | 0.63 | 0.63 | 44 | 641.7 |
| 20260901114311 | 85 | 42 | 0.0 | 0.0 | 0.00 | 0.63 | 0.63 | 45 | 879.7 |
| 20260901113744 | 85 | 50 | 0.0 | 0.0 | 0.00 | 0.63 | 0.63 | 42 | 464.3 |
| 20260901112306 | 84 | 61 | 0.0 | 0.0 | 0.00 | 0.63 | 0.63 | 44 | 436.1 |
| 20260901111306 | 84 | 58 | 0.0 | 0.0 | 0.00 | 0.63 | 0.63 | 44 | 570.6 |
| 20260901110806 | 84 | 92 | 0.0 | 0.0 | 0.00 | 0.63 | 0.63 | 45 | 520.7 |
| 20260901105737 | 84 | 0 | 0.0 | 0.0 | 0.00 | 0.63 | 0.63 | 44 | 790.0 |
| 20260901104303 | 83 | 0 | 0.0 | 0.0 | 0.00 | 0.63 | 0.63 | 44 | 647.9 |
| 20260901103739 | 82 | 0 | 0.0 | 0.0 | 0.00 | 0.63 | 0.63 | 45 | 460.7 |
| 20260901102742 | 82 | 32 | 0.0 | 0.0 | 0.00 | 0.63 | 0.63 | 47 | 909.1 |
| 20260901101259 | 82 | 26 | 0.0 | 0.0 | 0.00 | 0.63 | 0.63 | 46 | 1053.6 |
| 20260901100259 | 82 | 0 | 0.0 | 0.0 | 0.00 | 0.63 | 0.63 | 47 | 585.0 |
| 20260901095300 | 82 | 89 | 0.0 | 0.0 | 0.00 | 0.63 | 0.63 | 46 | 1096.8 |
| 20260901094301 | 82 | 0 | 0.0 | 0.0 | 0.00 | 0.63 | 0.63 | 46 | 1173.5 |
| 20260901093255 | 81 | 94 | 6.1 | 15.6 | 0.00 | 0.63 | 0.63 | 47 | 615.6 |
| 20260901092255 | 81 | 90 | 8.7 | 13.9 | 0.00 | 0.63 | 0.63 | 48 | 975.3 |
| 20260901091253 | 80 | 0 | 9.6 | 15.6 | 0.00 | 0.63 | 0.63 | 47 | 589.4 |
| 20260901090255 | 80 | 0 | 7.8 | 13.9 | 0.00 | 0.63 | 0.63 | 47 | 955.0 |
| 20260901085251 | 80 | 115 | 7.0 | 13.9 | 0.00 | 0.63 | 0.63 | 49 | 938.9 |
| 20260901084249 | 80 | 53 | 7.8 | 12.2 | 0.00 | 0.63 | 0.63 | 50 | 998.1 |
| 20260901083250 | 79 | 0 | 6.1 | 12.2 | 0.00 | 0.63 | 0.63 | 51 | 584.0 |
| 20260901082746 | 78 | 0 | 6.1 | 14.8 | 0.00 | 0.63 | 0.63 | 51 | 823.5 |
| 20260901081244 | 78 | 0 | 5.2 | 13.0 | 0.00 | 0.63 | 0.63 | 53 | 852.7 |
| 20260901080243 | 78 | 35 | 5.2 | 12.2 | 0.00 | 0.63 | 0.63 | 53 | 506.5 |
| 20260901075243 | 78 | 0 | 5.2 | 13.0 | 0.00 | 0.63 | 0.63 | 53 | 867.0 |
| 20260901074243 | 78 | 46 | 6.1 | 11.3 | 0.00 | 0.63 | 0.63 | 53 | 439.2 |
| 20260901074207 | 78 | 43 | 4.3 | 10.4 | 0.00 | 0.63 | 0.63 | 53 | 1036.9 |
| 20260901072723 | 78 | 0 | 6.1 | 13.0 | 0.00 | 0.63 | 0.63 | 53 | 432.7 |
| 20260901071241 | 78 | 0 | 4.3 | 12.2 | 0.00 | 0.63 | 0.63 | 56 | 514.8 |
| 20260901070240 | 77 | 45 | 4.3 | 11.3 | 0.00 | 0.63 | 0.63 | 57 | 906.3 |
| 20260901065239 | 76 | 0 | 2.6 | 8.7 | 0.00 | 0.63 | 0.63 | 61 | 1261.4 |
| 20260901064241 | 74 | 48 | 0.9 | 5.2 | 0.00 | 0.63 | 0.63 | 66 | 606.4 |
| 20260901064153 | 73 | 35 | 0.9 | 6.1 | 0.00 | 0.63 | 0.63 | 67 | 417.3 |
| 20260901062236 | 72 | 15 | 1.7 | 7.0 | 0.00 | 0.63 | 0.63 | 69 | 431.0 |
| 20260901061235 | 71 | 5 | 1.7 | 7.0 | 0.00 | 0.63 | 0.63 | 70 | 766.3 |
| 20260901060230 | 71 | 21 | 0.0 | 5.2 | 0.00 | 0.63 | 0.63 | 71 | 675.2 |
| 20260901055231 | 70 | 11 | 0.0 | 0.0 | 0.00 | 0.63 | 0.63 | 73 | 494.1 |
| 20260901054231 | 69 | 10 | 0.0 | 0.0 | 0.00 | 0.63 | 0.63 | 74 | 858.2 |
| 20260901053711 | 69 | 11 | 0.0 | 0.0 | 0.00 | 0.63 | 0.63 | 74 | 781.3 |
| 20260901052231 | 68 | 9 | 0.0 | 0.0 | 0.00 | 0.63 | 0.63 | 75 | 428.8 |
| 20260901051231 | 68 | 0 | 0.0 | 0.0 | 0.00 | 0.63 | 0.63 | 74 | 405.8 |
| 20260901050717 | 68 | 5 | 0.0 | 0.0 | 0.00 | 0.63 | 0.63 | 74 | 823.0 |
| 20260901045230 | 69 | 9 | 0.0 | 0.0 | 0.00 | 0.63 | 0.63 | 74 | 572.4 |
| 20260901044226 | 69 | 5 | 0.0 | 0.0 | 0.00 | 0.63 | 0.63 | 73 | 991.2 |
| 20260901043224 | 69 | 9 | 0.0 | 0.0 | 0.00 | 0.63 | 0.63 | 73 | 588.7 |
| 20260901042223 | 69 | 9 | 0.0 | 0.0 | 0.00 | 0.63 | 0.63 | 73 | 475.5 |
| 20260901041218 | 69 | 355 | 0.0 | 0.0 | 0.00 | 0.63 | 0.63 | 73 | 614.4 |
| 20260901040650 | 69 | 355 | 0.0 | 0.0 | 0.00 | 0.63 | 0.63 | 73 | 631.6 |
| 20260901035216 | 70 | 0 | 0.0 | 0.0 | 0.00 | 0.63 | 0.63 | 73 | 642.0 |
| 20260901034209 | 70 | 355 | 0.0 | 0.0 | 0.00 | 0.63 | 0.63 | 72 | 1060.3 |
| 20260901033209 | 70 | 355 | 0.0 | 0.0 | 0.00 | 0.63 | 0.63 | 73 | 858.6 |
| 20260901032210 | 70 | 355 | 0.0 | 0.0 | 0.00 | 0.63 | 0.63 | 72 | 489.7 |
| 20260901031212 | 70 | 355 | 0.0 | 0.0 | 0.00 | 0.63 | 0.63 | 73 | 434.5 |
| 20260901030213 | 70 | 346 | 0.0 | 0.0 | 0.00 | 0.63 | 0.63 | 73 | 518.3 |
| 20260901025642 | 70 | 355 | 0.0 | 0.0 | 0.00 | 0.63 | 0.63 | 74 | 548.0 |
| 20260901024205 | 70 | 16 | 0.0 | 0.0 | 0.00 | 0.63 | 0.63 | 75 | 518.5 |
| 20260901023648 | 70 | 5 | 0.0 | 0.0 | 0.00 | 0.63 | 0.63 | 76 | 1001.7 |
| 20260901022206 | 70 | 5 | 0.0 | 0.0 | 0.00 | 0.63 | 0.63 | 76 | 935.2 |
| 20260901021203 | 69 | 16 | 0.0 | 0.0 | 0.00 | 0.63 | 0.63 | 78 | 1059.5 |
| 20260901020203 | 69 | 19 | 0.0 | 0.0 | 0.00 | 0.63 | 0.63 | 79 | 958.1 |
| 20260901015642 | 69 | 5 | 0.9 | 7.0 | 0.00 | 0.63 | 0.63 | 80 | 564.3 |
| 20260901014647 | 69 | 33 | 0.0 | 1.7 | 0.00 | 0.63 | 0.63 | 81 | 878.2 |
| 20260901014121 | 68 | 326 | 0.9 | 5.2 | 0.00 | 0.63 | 0.63 | 82 | 801.5 |
| 20260901012638 | 68 | 344 | 0.9 | 4.3 | 0.01 | 0.63 | 0.63 | 82 | 636.9 |
| 20260901011203 | 68 | 36 | 0.0 | 0.0 | 0.01 | 0.63 | 0.63 | 84 | 1130.2 |
| 20260901010203 | 68 | 36 | 0.0 | 3.5 | 0.01 | 0.63 | 0.63 | 84 | 764.8 |
| 20260901005204 | 68 | 30 | 0.0 | 4.3 | 0.01 | 0.63 | 0.63 | 82 | 900.9 |
| 20260901004203 | 68 | 0 | 0.9 | 7.0 | 0.01 | 0.63 | 0.63 | 82 | 524.9 |
| 20260901003205 | 69 | 355 | 0.9 | 6.1 | 0.01 | 0.63 | 0.63 | 80 | 1223.5 |
| 20260901002201 | 70 | 355 | 0.0 | 3.5 | 0.00 | 0.62 | 0.62 | 77 | 582.3 |
| 20260901001202 | 70 | 343 | 1.7 | 9.6 | 0.00 | 0.62 | 0.62 | 77 | 619.4 |
| 20260901000204 | 69 | 315 | 4.3 | 9.6 | 0.00 | 0.62 | 0.62 | 78 | 541.8 |
| 20260831235202 | 68 | 315 | 1.7 | 7.8 | 0.00 | 0.62 | 0.62 | 81 | 663.3 |
| 20260831234644 | 68 | 323 | 2.6 | 8.7 | 0.00 | 0.62 | 0.62 | 82 | 750.1 |
| 20260831233203 | 68 | 302 | 4.3 | 13.9 | 0.02 | 0.62 | 0.62 | 80 | 511.3 |
| 20260831232204 | 69 | 290 | 3.5 | 11.3 | 0.28 | 0.62 | 0.62 | 77 | 1013.1 |
| 20260831231651 | 69 | 346 | 6.1 | 13.0 | 0.61 | 0.62 | 0.62 | 77 | 492.7 |
| 20260831230700 | 68 | 326 | 6.1 | 13.9 | 0.62 | 0.62 | 0.62 | 80 | 774.2 |
| 20260831225157 | 68 | 355 | 6.1 | 11.3 | 0.62 | 0.62 | 0.62 | 82 | 1235.9 |
| 20260831224158 | 67 | 5 | 5.2 | 9.6 | 0.62 | 0.62 | 0.62 | 83 | 483.0 |
| 20260831223153 | 67 | 24 | 2.6 | 8.7 | 0.61 | 0.61 | 0.60 | 82 | 685.8 |
| 20260831222153 | 67 | 310 | 5.2 | 14.8 | 0.34 | 0.34 | 0.31 | 83 | 886.1 |
| 20260831221156 | 71 | 327 | 5.2 | 13.0 | 0.01 | 0.01 | 0.00 | 73 | 1001.1 |
| 20260831220153 | 75 | 319 | 6.1 | 11.3 | 0.00 | 0.00 | 0.00 | 64 | 872.7 |
| 20260831215147 | 77 | 12 | 4.3 | 9.6 | 0.00 | 0.00 | 0.00 | 57 | 1230.8 |
| 20260831214148 | 79 | 319 | 0.0 | 7.8 | 0.00 | 0.00 | 0.00 | 54 | 677.9 |
| 20260831213149 | 79 | 5 | 0.9 | 7.0 | 0.00 | 0.00 | 0.00 | 54 | 464.0 |
| 20260831212149 | 78 | 337 | 0.9 | 4.3 | 0.00 | 0.00 | 0.00 | 60 | 1015.7 |
| 20260831211631 | 77 | 5 | 0.0 | 2.6 | 0.00 | 0.00 | 0.00 | 72 | 483.4 |
| 20260831210146 | 77 | 65 | 0.0 | 0.0 | 0.00 | 0.00 | 0.00 | 72 | 590.7 |
| 20260831205143 | 77 | 65 | 0.0 | 0.0 | 0.00 | 0.00 | 0.00 | 71 | 1025.8 |
| 20260831204145 | 78 | 65 | 0.0 | 1.7 | 0.00 | 0.00 | 0.00 | 71 | 1064.3 |
| 20260831203140 | 78 | 65 | 0.0 | 0.0 | 0.00 | 0.00 | 0.00 | 70 | 959.5 |
| 20260831202140 | 78 | 65 | 0.0 | 1.7 | 0.00 | 0.00 | 0.00 | 70 | 547.3 |
| 20260831201141 | 78 | 65 | 0.9 | 2.6 | 0.00 | 0.00 | 0.00 | 71 | 1212.5 |
| 20260831200135 | 78 | 0 | 0.0 | 1.7 | 0.00 | 0.00 | 0.00 | 71 | 513.1 |
| 20260831195615 | 78 | 0 | 0.0 | 0.0 | 0.00 | 0.00 | 0.00 | 70 | 1185.3 |